Home   Weather   Szczecin   Past weeks

Flag for Poland Past Weather in Szczecin, Poland — Yesterday and Last 2 Weeks

Now
37 °F

Clear.


Feels Like: 31 °F
Forecast: 35 / 51 °F
Wind: 9 mph from West

Location: Szczecin Airport

Current Time: Apr 24, 2017 at 1:30:16 am

Latest Report: Apr 24, 2017 at 1:00 am


Visibility: 10 mi

Pressure: 30.04 "Hg

Humidity: 81%

Dew Point: 32 °F

Location of SzczecinLocation

Past Weather in Szczecin — Graph

°F

Szczecin Temperature Yesterday

Maximum temperature yesterday: 48 °F (at 11:30 am)
Minimum temperature yesterday: 36 °F (at 3:00 am)
Average temperature yesterday: 41 °F

High & Low Weather Summary for the Past Weeks

 TemperatureHumidityPressure
High66 °F (Apr 10, 12:00 pm)100% (Apr 12, 5:30 am)30.57 "Hg (Apr 12, 5:30 am)
Low23 °F (Apr 20, 5:30 am)37% (Apr 20, 3:30 pm)29.62 "Hg (Apr 12, 10:30 pm)
Average43 °F75%30.02 "Hg
* Reported Apr 9 12:00 am — Apr 24 12:00 am, Szczecin, Weather by CustomWeather, © 2017

Note: Actual official high and low records may vary slightly from our data, if they occured in-between our weather recording intervals... More about our weather records

Advertising

Szczecin Weather History for the Previous 24 Hours

Scroll right to see more
 ConditionsComfort  
Time TempWeatherWind HumidityBarometerVisibility
12:00 am
Mon, Apr 24
37 °FClear.9 mph75%30.04 "Hg10 mi
11:30 pm
Sun, Apr 23
39 °FClear.9 mph70%30.04 "Hg10 mi
11:00 pm41 °FClear.9 mph66%30.04 "Hg10 mi
10:30 pm41 °FClear.8 mph70%30.04 "Hg10 mi
10:00 pm41 °FClear.12 mph70%30.01 "Hg10 mi
9:00 pm39 °FPassing clouds.8 mph75%30.01 "HgN/A
8:30 pm37 °FPassing clouds.3 mph81%30.01 "HgN/A
8:00 pm41 °FSprinkles. Broken clouds.17 mph76%30.01 "HgN/A
7:30 pm43 °FPassing clouds.8 mph66%29.98 "HgN/A
7:00 pm43 °FScattered clouds.10 mph66%29.98 "HgN/A
6:30 pm43 °FScattered clouds.21 mph61%30.01 "HgN/A
6:00 pm45 °FPassing clouds.14 mph53%29.98 "HgN/A
5:30 pm43 °FBroken clouds.24 mph66%29.98 "HgN/A
5:00 pm46 °FScattered clouds.18 mph53%29.98 "HgN/A
4:30 pm46 °FScattered clouds.22 mph53%29.98 "HgN/A
4:00 pm48 °FBroken clouds.22 mph43%29.95 "HgN/A
3:00 pm48 °FPartly sunny.20 mph50%29.95 "HgN/A
2:00 pm46 °FBroken clouds.15 mph62%29.98 "HgN/A
1:30 pm43 °FBroken clouds.12 mph81%29.98 "HgN/A
1:00 pm43 °FSprinkles. Broken clouds.15 mph76%29.98 "HgN/A
12:30 pm43 °FBroken clouds.14 mph71%29.98 "HgN/A
12:00 pm45 °FBroken clouds.18 mph66%29.98 "HgN/A
11:30 am48 °FBroken clouds.14 mph62%29.98 "HgN/A
11:00 am46 °FPartly sunny.15 mph71%29.98 "HgN/A
10:30 am43 °FBroken clouds.12 mph76%29.98 "HgN/A
10:00 am43 °FBroken clouds.13 mph81%29.98 "HgN/A
9:00 am41 °FBroken clouds.10 mph87%29.98 "HgN/A
8:30 am41 °FPartly sunny.8 mph87%29.98 "HgN/A
8:00 am39 °FPartly sunny.10 mph87%29.98 "HgN/A
7:30 am39 °FBroken clouds.9 mph87%29.98 "HgN/A
7:00 am39 °FBroken clouds.10 mph87%29.95 "HgN/A
6:30 am39 °FMostly cloudy.9 mph87%29.95 "HgN/A
6:00 am37 °FMore clouds than sun.9 mph93%29.95 "HgN/A
5:30 am37 °FMostly cloudy.10 mph93%29.95 "HgN/A
5:00 am36 °FPartly cloudy.7 mph93%29.95 "HgN/A
4:30 am36 °FPassing clouds.8 mph87%29.92 "HgN/A
4:00 am36 °FClear.7 mph87%29.92 "Hg10 mi
3:30 am36 °FClear.9 mph87%29.92 "Hg10 mi
3:00 am36 °FClear.8 mph87%29.92 "Hg10 mi
2:30 am37 °FClear.8 mph81%29.92 "Hg10 mi
2:00 am37 °FClear.9 mph81%29.92 "Hg10 mi
1:30 am37 °FClear.7 mph87%29.92 "Hg10 mi
1:00 am37 °FClear.8 mph93%29.92 "Hg10 mi
Weather by CustomWeather, © 2017

See weather overviewHow to use our weather pages